[[{"header":{"parameterUnit":"m.s-1","parameterCategory":1,"la1":30.2991,"la2":30.254,"lo1":-89.0895,"lo2":-89.0444,"dy":0.0017,"dx":0.0017,"nx":28,"ny":28,"refTime":"2025-04-03T21:00:00:Z","depth":0,"parameterNumber":2,"parameterNumberName":"U-component_of_WINDS"},"data":[0,0,0,0,0,0,0,0,0,0,0,0,0,0,0,0,0,0,0,0,0,0,0,0,0,0,0,0,0,0,0,0,0,0,0,0,0,0,0,0,0,0,0,0,0,0,0,0,0,0,0,0,0,0,0,0,0,0,-4.1284,-4.1284,0,-4.1353,-4.1354,-4.1354,-4.1354,-4.1353,-4.1352,-4.1352,-4.142,-4.1423,-4.1426,0,0,0,0,0,0,0,0,0,0,0,0,0,-4.115,-4.1153,-4.1284,-4.1284,-4.1285,-4.1353,-4.1354,-4.1354,-4.1354,-4.1353,-4.1352,-4.1351,-4.142,-4.1423,-4.1426,0,0,0,0,0,0,0,0,0,0,0,0,0,-4.1213,-4.1154,-4.1283,-4.1293,-4.1295,-4.1352,-4.1354,-4.1355,-4.1355,-4.1353,-4.1352,-4.1351,-4.1419,-4.1422,-4.1426,-4.1478,0,0,-4.1439,-4.144,0,0,0,0,0,0,0,0,-4.1209,-4.1218,-4.1291,-4.1293,-4.1295,-4.1344,-4.1332,-4.1396,-4.1355,-4.1332,-4.1352,-4.135,-4.1396,-4.1402,-4.1417,-4.1481,-4.1484,-4.1439,-4.1441,-4.1443,-4.1444,0,0,0,0,0,0,0,-4.1205,-4.1215,-4.1311,-4.1292,-4.1294,-4.1294,-4.1301,-4.1344,-4.137,-4.1334,-4.1334,-4.1342,-4.1397,-4.1414,-4.1419,-4.1485,-4.1439,-4.1442,-4.1445,-4.1446,-4.1594,-4.1595,0,0,0,0,0,0,-4.1199,-4.1211,-4.1309,-4.1313,-4.1248,-4.1298,-4.1306,-4.1329,-4.137,-4.1375,-4.1343,-4.1342,-4.1407,-4.1414,-4.1421,-4.1483,-4.1443,-4.1447,-4.1449,-4.1592,-4.1594,-4.1596,0,0,0,0,0,0,-4.1196,-4.1207,-4.1306,-4.1262,-4.1275,-4.1301,-4.1328,-4.1331,-4.1348,-4.1377,-4.1382,-4.1356,-4.1407,-4.1416,-4.1464,-4.1486,-4.1449,-4.1452,-4.159,-4.1593,-4.1595,-4.1608,0,0,0,0,0,0,-4.1192,-4.1206,-4.1226,-4.1263,-4.1277,-4.1347,-4.1329,-4.1334,-4.1355,-4.1354,-4.139,-4.1395,-4.1406,-4.1458,-4.1468,-4.1491,-4.1455,-4.1589,-4.1592,-4.1594,-4.1606,-4.161,-4.1615,0,0,0,0,0,-4.1187,-4.1227,-4.1227,-4.1239,-4.1303,-4.1349,-4.1357,-4.137,-4.1357,-4.1377,-4.1396,-4.1394,-4.1482,-4.1463,-4.1474,-4.1498,-4.1587,-4.1591,-4.1594,-4.1604,-4.161,-4.1614,0,0,0,0,0,0,-4.1192,-4.1232,-4.1233,-4.1285,-4.1314,-4.1349,-4.1374,-4.1376,-4.1407,-4.1405,-4.1419,-4.1427,-4.1475,-4.1492,-4.1469,-4.155,-4.1533,-4.1539,-4.1537,-4.1543,-4.1547,-4.1541,-4.1459,0,0,0,0,0,-4.1199,-4.1234,-4.1267,-4.131,-4.1324,-4.1347,-4.1367,-4.1375,-4.1405,-4.1416,-4.1439,-4.1467,-4.1501,-4.1523,-4.1556,-4.1609,-4.1616,-4.1632,-4.1636,-4.164,-4.1643,-4.1672,-4.1679,-4.1607,-4.1607,-4.1607,0,0,-4.1214,-4.124,-4.1261,-4.1312,-4.1334,-4.1369,-4.1357,-4.1394,-4.142,-4.1422,-4.1468,-4.1486,-4.1518,-4.1569,-4.1592,-4.1584,-4.1665,-4.1644,-4.1646,-4.1649,-4.1676,-4.1683,-4.1689,-4.1609,-4.1609,-4.1609,0,0,-4.1259,-4.1283,-4.1321,-4.1344,-4.1379,-4.1394,-4.1404,-4.1439,-4.1451,-4.1498,-4.15,-4.1531,-4.159,-4.1613,-4.1632,-4.1687,-4.1686,-4.1698,-4.172,-4.1747,-4.1753,-4.1758,-4.1776,-4.1782,-4.1702,-4.1702,-4.1702,0,-4.1272,-4.1325,-4.134,-4.1378,-4.14,-4.1405,-4.1443,-4.1465,-4.1509,-4.1523,-4.1515,-4.1589,-4.1611,-4.1666,-4.168,-4.1696,-4.1706,-4.1692,-4.1751,-4.1756,-4.1761,-4.1778,-4.1785,-4.1703,-4.1703,-4.1703,-4.1703,0,-4.134,-4.1377,-4.1403,-4.1446,-4.1471,-4.1509,-4.1529,-4.1553,-4.1559,-4.1575,-4.1623,-4.165,-4.1689,-4.1703,-4.1709,-4.176,-4.1753,-4.1748,-4.1731,-4.1768,-4.1785,-4.1792,-4.1705,-4.1704,-4.1704,-4.1704,0,0,-4.1387,-4.1439,-4.1448,-4.1467,-4.1507,-4.1535,-4.1574,-4.1612,-4.1631,-4.1662,-4.1694,-4.1744,-4.1739,-4.1761,-4.177,-4.1795,-4.1835,-4.1786,-4.1787,-4.1793,-4.1891,-4.1893,-4.19,-4.1836,-4.1837,-4.1838,-4.1887,0,-4.1434,-4.1502,-4.1517,-4.1575,-4.1609,-4.1615,-4.1648,-4.1676,-4.1692,-4.1723,-4.1741,-4.1776,-4.1768,-4.1781,-4.1806,-4.1825,-4.1854,-4.1822,-4.1864,-4.1865,-4.1853,-4.1909,-4.1912,-4.1957,-4.1894,-4.1895,-4.1896,0,-4.1498,-4.153,-4.1592,-4.1627,-4.1642,-4.1672,-4.1708,-4.1738,-4.1769,-4.178,-4.1805,-4.1812,-4.1851,-4.1834,-4.1888,-4.1866,-4.1884,-4.1897,-4.1899,-4.1901,-4.1881,-4.1911,-4.1972,-4.1978,-4.1907,-4.1906,-4.1905,0,-4.1524,-4.1583,-4.1628,-4.1644,-4.1687,-4.1707,-4.1726,-4.1757,-4.1779,-4.1811,-4.1825,-4.1862,-4.1881,-4.1909,-4.1925,-4.1911,-4.1977,-4.1962,-4.1986,-4.1985,-4.1997,-4.1996,-4.2059,-4.2013,-4.2013,-4.2013,-4.2013,0,-4.1573,-4.161,-4.164,-4.1667,-4.1708,-4.1726,-4.1767,-4.1785,-4.1813,-4.1843,-4.1851,-4.1879,-4.19,-4.1931,-4.1945,-4.1987,-4.1996,-4.2005,-4.2007,-4.2003,-4.2001,-4.2013,-4.2009,-4.2015,-4.2014,-4.2014,-4.2013,0,-4.1608,-4.1629,-4.1678,-4.1715,-4.1725,-4.1754,-4.1785,-4.1812,-4.1829,-4.1868,-4.1878,-4.1904,-4.1942,-4.1961,-4.2008,-4.2017,-4.2063,-4.2065,-4.2053,-4.2053,-4.2075,-4.2072,-4.2146,-4.2156,-4.2105,-4.2106,-4.2106,0,-4.1637,-4.1666,-4.1706,-4.1728,-4.1747,-4.1781,-4.1804,-4.1823,-4.1846,-4.1885,-4.1906,-4.1944,-4.1975,-4.2034,-4.2058,-4.2093,-4.2095,-4.2119,-4.21,-4.2094,-4.2093,-4.209,-4.2092,-4.2121,-4.2121,-4.2122,-4.2122,0,-4.1687,-4.1696,-4.1729,-4.1765,-4.1792,-4.1822,-4.1852,-4.1868,-4.1892,-4.1918,-4.1956,-4.1981,-4.2029,-4.2066,-4.2103,-4.2122,-4.2126,-4.2128,-4.2135,-4.213,-4.212,-4.2124,-4.2059,-4.2126,-4.2125,-4.2125,-4.2125,-4.2125,-4.1718,-4.1744,-4.1776,-4.1812,-4.1837,-4.1864,-4.189,-4.1911,-4.1944,-4.1984,-4.1994,-4.2034,-4.2065,-4.2116,-4.2137,-4.2168,-4.2163,-4.2174,-4.2176,-4.2178,-4.2178,-4.2117,-4.2175,-4.2175,-4.2175,-4.2175,-4.2175,0,-4.1766,-4.1788,-4.1821,-4.1862,-4.189,-4.1893,-4.1926,-4.1949,-4.1984,-4.2014,-4.2045,-4.2088,-4.2125,-4.2152,-4.2189,-4.2209,-4.2211,-4.2218,-4.2215,-4.2219,-4.2181,-4.217,-4.2215,-4.2215,-4.2215,-4.2215,-4.2215,-4.2215,-4.1794,-4.1837,-4.185,-4.1905,-4.1927,-4.1966,-4.1985,-4.201,-4.2033,-4.2082,-4.2112,-4.213,-4.2158,-4.2198,-4.2231,-4.2238,-4.225,-4.2256,-4.2263,-4.2226,-4.2222,-4.2218,-4.2208,-4.2259,-4.2259,-4.2298,-4.2299,-4.2299]},{"header":{"parameterUnit":"m.s-1","parameterCategory":1,"la1":30.2991,"la2":30.254,"lo1":-89.0895,"lo2":-89.0444,"dy":0.0017,"dx":0.0017,"nx":28,"ny":28,"refTime":"2025-04-03T21:00:00:Z","depth":0,"parameterNumber":3,"parameterNumberName":"V-component_of_WINDS"},"data":[0,0,0,0,0,0,0,0,0,0,0,0,0,0,0,0,0,0,0,0,0,0,0,0,0,0,0,0,0,0,0,0,0,0,0,0,0,0,0,0,0,0,0,0,0,0,0,0,0,0,0,0,0,0,0,0,0,0,4.4037,4.4038,0,4.4165,4.4167,4.4168,4.4193,4.4192,4.4191,4.4191,4.4321,4.4325,4.4329,0,0,0,0,0,0,0,0,0,0,0,0,0,4.3815,4.3819,4.4037,4.4038,4.404,4.4165,4.4167,4.4169,4.4194,4.4192,4.4191,4.419,4.4319,4.4325,4.433,0,0,0,0,0,0,0,0,0,0,0,0,0,4.3924,4.382,4.4036,4.4068,4.4072,4.4165,4.4167,4.4169,4.4194,4.4192,4.4191,4.419,4.4318,4.4324,4.4331,4.4401,0,0,4.4351,4.4354,0,0,0,0,0,0,0,0,4.3918,4.3932,4.4061,4.4066,4.407,4.4162,4.4136,4.4247,4.4194,4.4147,4.4191,4.4189,4.4269,4.428,4.4307,4.4407,4.4413,4.4351,4.4355,4.4358,4.436,0,0,0,0,0,0,0,4.391,4.3927,4.4088,4.4063,4.4069,4.4076,4.409,4.4157,4.4215,4.4151,4.4154,4.4169,4.4271,4.43,4.431,4.4415,4.4351,4.4357,4.4361,4.4364,4.4584,4.4586,0,0,0,0,0,0,4.3897,4.392,4.4083,4.4091,4.3989,4.4081,4.4096,4.4134,4.4214,4.4225,4.417,4.4169,4.429,4.4302,4.4315,4.4406,4.4358,4.4364,4.4368,4.4582,4.4584,4.4587,0,0,0,0,0,0,4.3892,4.3911,4.4078,4.4007,4.4028,4.4086,4.4128,4.4137,4.4167,4.4228,4.4239,4.4189,4.4289,4.4305,4.4381,4.4411,4.4367,4.4373,4.458,4.4583,4.4586,4.4587,0,0,0,0,0,0,4.3886,4.3909,4.3936,4.4007,4.4032,4.4141,4.413,4.4141,4.4178,4.4179,4.4249,4.4259,4.4289,4.4371,4.4387,4.4419,4.4378,4.4578,4.4581,4.4585,4.4584,4.4589,4.4593,0,0,0,0,0,4.3878,4.393,4.3937,4.3957,4.4067,4.4143,4.4157,4.4191,4.418,4.4209,4.4249,4.4257,4.4404,4.4378,4.4397,4.4431,4.4576,4.458,4.4584,4.4582,4.4588,4.4593,0,0,0,0,0,0,4.386,4.394,4.3949,4.4026,4.4078,4.4147,4.4183,4.4196,4.4252,4.425,4.4289,4.4305,4.4379,4.4412,4.4381,4.4506,4.449,4.4498,4.4481,4.4488,4.4492,4.4483,4.4384,0,0,0,0,0,4.3865,4.3921,4.3987,4.4049,4.4075,4.4125,4.4159,4.4181,4.4236,4.4258,4.4303,4.4357,4.4416,4.4453,4.451,4.4589,4.4606,4.4622,4.4627,4.463,4.4637,4.4685,4.4694,4.4601,4.4601,4.4601,0,0,4.3876,4.3927,4.3959,4.4047,4.4089,4.4147,4.4143,4.4202,4.4246,4.4267,4.4342,4.4377,4.4439,4.4518,4.4554,4.4548,4.4667,4.4636,4.4638,4.4643,4.4691,4.4699,4.4707,4.4604,4.4603,4.4603,0,0,4.3927,4.3969,4.4027,4.4071,4.4136,4.417,4.4184,4.4253,4.4277,4.4353,4.4371,4.4424,4.4523,4.4568,4.4603,4.4675,4.4686,4.4692,4.4717,4.4763,4.477,4.4777,4.4805,4.4815,4.4699,4.4699,4.4699,0,4.3932,4.4019,4.4055,4.4116,4.4155,4.4178,4.4238,4.4278,4.4359,4.4386,4.4377,4.4506,4.4549,4.464,4.4658,4.4685,4.4704,4.4685,4.4766,4.4773,4.478,4.4808,4.4818,4.4699,4.4699,4.4699,4.4699,0,4.4024,4.4085,4.4123,4.4203,4.4246,4.4306,4.4352,4.4392,4.4411,4.4446,4.4524,4.4578,4.4648,4.4671,4.4688,4.4765,4.476,4.4758,4.4743,4.4789,4.4816,4.4826,4.47,4.47,4.47,4.4699,0,0,4.4066,4.4166,4.418,4.4218,4.4294,4.4342,4.4403,4.4473,4.4508,4.4563,4.4618,4.4703,4.4704,4.4745,4.4768,4.4808,4.4866,4.4803,4.4805,4.4815,4.4957,4.496,4.4971,4.4873,4.4875,4.4877,4.4953,0,4.4127,4.4239,4.4274,4.4368,4.4426,4.4451,4.4505,4.4558,4.4593,4.4648,4.4686,4.4747,4.4741,4.4767,4.4808,4.485,4.4895,4.4845,4.4926,4.4928,4.4912,4.4985,4.4986,4.5056,4.4963,4.4965,4.4966,0,4.4213,4.4272,4.4372,4.4444,4.447,4.4518,4.4587,4.4638,4.47,4.4723,4.477,4.4791,4.4859,4.4839,4.4934,4.4899,4.4934,4.4961,4.4964,4.4974,4.4951,4.4999,4.5078,4.509,4.4983,4.4981,4.498,0,4.4237,4.4341,4.4416,4.4447,4.4532,4.4566,4.4603,4.4663,4.4704,4.4764,4.4792,4.4858,4.4895,4.4947,4.4986,4.4968,4.5079,4.5062,4.5102,4.5101,4.5125,4.5123,4.5213,4.5144,4.5144,4.5143,4.5143,0,4.4303,4.4364,4.4428,4.4474,4.4544,4.4585,4.4653,4.4692,4.4746,4.4801,4.4825,4.4876,4.4924,4.4982,4.5013,4.5089,4.5104,4.5126,4.5134,4.5125,4.5123,4.515,4.5147,4.5146,4.5146,4.5145,4.5145,0,4.4342,4.4387,4.447,4.4545,4.4565,4.4614,4.4678,4.4725,4.4761,4.4831,4.4849,4.4907,4.4977,4.5021,4.5109,4.513,4.5215,4.522,4.5194,4.5198,4.5237,4.5234,4.535,4.5368,4.5284,4.5285,4.5285,0,4.4382,4.443,4.451,4.455,4.4587,4.4649,4.4692,4.4735,4.4778,4.4854,4.4892,4.4964,4.5024,4.5134,4.5185,4.5253,4.5262,4.5298,4.5272,4.5263,4.5266,4.5263,4.527,4.5302,4.5303,4.5303,4.5304,0,4.4449,4.447,4.4531,4.4601,4.4652,4.4709,4.4765,4.4796,4.4849,4.4897,4.4969,4.5016,4.5108,4.518,4.5253,4.5292,4.5308,4.5311,4.5325,4.5317,4.5302,4.5314,4.5208,4.5309,4.5308,4.5308,4.5308,4.5307,4.4492,4.4537,4.4602,4.467,4.4718,4.4771,4.482,4.4864,4.4925,4.5004,4.5025,4.5102,4.5166,4.5267,4.5307,4.5368,4.5364,4.5382,4.5388,4.5392,4.5395,4.5291,4.5382,4.5381,4.5381,4.5381,4.5381,0,4.4564,4.4607,4.4669,4.4749,4.4804,4.4814,4.4878,4.4923,4.4991,4.5049,4.5108,4.5193,4.5264,4.5321,4.5394,4.5432,4.5442,4.545,4.5449,4.5458,4.5393,4.5375,4.5442,4.5442,4.5442,4.5442,4.5442,4.5442,4.4607,4.4686,4.4715,4.4818,4.4861,4.4937,4.4974,4.5024,4.5071,4.5165,4.5225,4.5262,4.532,4.5398,4.5464,4.5479,4.5506,4.5514,4.5531,4.5469,4.5462,4.5456,4.544,4.5519,4.5519,4.5592,4.5593,4.5593]}]]